Location: Capvern
(43.1036°N, 0.3160°E)
Time: 12:15:36
(UTC+00:00)

Cosmos 489 Rocket - Pass Details

Date: 07 June 2022
Orbit: 952 x 983 km, 74.0° (Epoch: 01 July)

Event Time Altitude Azimuth Distance (km) Brightness Sun altitude
Rises 23:39:53 0° 351° (N) 3,651 8.9 -23.9°
Reaches altitude 10° 23:43:43 10° 14° (NNE) 2,707 7.8 -24.0°
Maximum altitude 23:47:11 15° 48° (NE) 2,356 6.9 -24.0°
Drops below altitude 10° 23:50:39 10° 82° (E) 2,712 6.9 -24.1°
Sets 23:54:28 0° 105° (ESE) 3,661 7.4 -24.1°
